Weather History for Wright-Patt AFB, OH

Change the Weather History Date:

Wednesday, February 6, 2013

  Actual Average Record
Temperature  
Mean Temperature 32 °F -  
Max Temperature 37 °F 38 °F 62 °F (2008)
Min Temperature 26 °F 21 °F -2 °F (2007)
Degree Days  
Heating Degree Days 34    
Moisture  
Dew Point 22 °F    
Average Humidity 67    
Maximum Humidity 77    
Minimum Humidity 50    
Precipitation  
Precipitation 0.00 in - - ()
Sea Level Pressure  
Sea Level Pressure 30.21 in    
Wind  
Wind Speed 7 mph (NNW)    
Max Wind Speed 9 mph    
Max Gust Speed -    
Visibility 10 miles    
Events      
Averages and records for this station are not official NWS values.
T = Trace of Precipitation, MM = Missing Value Source: NWS Daily Summary

Daily Weather History Graph

Daily Weather History Graph

Search for Another Location

Airport:

Trip Planner

Search our weather history database for the weather conditions in past years. The results will help you decide how hot, cold, wet, or windy it might be!

Date:

Astronomy

Feb. 06, 2013 Rise Set
Actual Time 7:39 AM EST 6:02 PM EST
Civil Twilight 7:10 AM EST 6:30 PM EST
Nautical Twilight 6:38 AM EST 7:02 PM EST
Astronomical Twilight 6:07 AM EST 7:33 PM EST
Moon 4:21 AM EST (2/6) 2:19 PM EST (2/6)
Length of Visible Light 11h 19m
Length of Day
10h 23m
Waning Crescent, 17% of the Moon is Illuminated
Feb 6
Waning Crescent
Feb 10
New
Feb 17
First Quarter
Feb 25
Full
Mar 4
Last Quarter

Hourly Weather History & Observations

Time (EST) Temp. Windchill Dew Point Humidity Pressure Visibility Wind Dir Wind Speed Gust Speed Precip Events Conditions
12:44 AM 33.8 °F 26.4 °F 26.6 °F 75% 30.04 in 10.0 mi West 9.2 mph - N/A   Overcast
12:55 AM 34.2 °F 27.5 °F 26.1 °F 72% 30.04 in 10.0 mi West 8.1 mph - N/A   Overcast
1:55 AM 33.6 °F 26.8 °F 25.9 °F 73% 30.07 in 10.0 mi WNW 8.1 mph - N/A   Overcast
2:05 AM 33.8 °F 28.6 °F 26.6 °F 75% 30.08 in 10.0 mi WNW 5.8 mph - N/A   Overcast
2:40 AM 33.8 °F 27.0 °F 26.6 °F 75% 30.09 in 10.0 mi NNW 8.1 mph - N/A   Overcast
2:55 AM 32.7 °F 25.0 °F 25.3 °F 74% 30.09 in 10.0 mi NW 9.2 mph - N/A   Overcast
3:55 AM 32.2 °F 25.8 °F 25.3 °F 76% 30.12 in 7.0 mi WNW 6.9 mph - N/A   Overcast
4:55 AM 31.1 °F 23.7 °F 24.1 °F 75% 30.14 in 7.0 mi NW 8.1 mph - N/A   Overcast
5:55 AM 30.7 °F 24.1 °F 23.7 °F 75% 30.18 in 7.0 mi NW 6.9 mph - N/A   Overcast
6:55 AM 30.4 °F 22.9 °F 21.9 °F 71% 30.21 in 10.0 mi NW 8.1 mph - N/A   Overcast
7:52 AM 30.2 °F 23.4 °F 21.2 °F 69% 30.23 in 10.0 mi NW 6.9 mph - N/A   Overcast
8:55 AM 30.2 °F 25.4 °F 19.9 °F 66% 30.26 in 10.0 mi NW 4.6 mph - N/A   Overcast
9:55 AM 30.6 °F 24.7 °F 18.1 °F 60% 30.26 in 10.0 mi NW 5.8 mph - N/A   Overcast
10:55 AM 31.5 °F 26.8 °F 18.1 °F 58% 30.26 in 10.0 mi Variable 4.6 mph - N/A   Mostly Cloudy
11:55 AM 32.9 °F 28.5 °F 19.0 °F 57% 30.29 in 10.0 mi West 4.6 mph - N/A   Mostly Cloudy
12:35 PM 33.8 °F - 19.4 °F 56% 30.28 in 10.0 mi Calm Calm - N/A   Scattered Clouds
12:55 PM 34.2 °F 31.2 °F 19.6 °F 55% 30.28 in 10.0 mi NNW 3.5 mph - N/A   Scattered Clouds
1:55 PM 36.1 °F 33.5 °F 19.0 °F 50% 30.27 in 10.0 mi ENE 3.5 mph - N/A   Scattered Clouds
2:55 PM 36.7 °F 34.1 °F 19.8 °F 50% 30.27 in 10.0 mi Variable 3.5 mph - N/A   Partly Cloudy
3:55 PM 37.2 °F 31.9 °F 20.5 °F 51% 30.26 in 10.0 mi ESE 6.9 mph - N/A   Scattered Clouds
4:55 PM 35.1 °F 27.9 °F 20.1 °F 55% 30.27 in 10.0 mi SE 9.2 mph - N/A   Partly Cloudy
5:55 PM 32.7 °F 27.3 °F 20.1 °F 60% 30.30 in 10.0 mi ESE 5.8 mph - N/A   Partly Cloudy
6:55 PM 30.2 °F 24.3 °F 20.3 °F 67% 30.29 in 10.0 mi ESE 5.8 mph - N/A   Clear
7:55 PM 28.9 °F 21.9 °F 20.8 °F 72% 30.29 in 10.0 mi ESE 6.9 mph - N/A   Clear
8:55 PM 28.0 °F 22.8 °F 20.3 °F 73% 30.27 in 10.0 mi ENE 4.6 mph - N/A   Scattered Clouds
9:55 PM 26.2 °F 20.7 °F 19.9 °F 77% 30.26 in 10.0 mi East 4.6 mph - N/A   Partly Cloudy
10:55 PM 27.3 °F 22.0 °F 19.9 °F 74% 30.26 in 10.0 mi ESE 4.6 mph - N/A   Partly Cloudy
11:55 PM 27.3 °F 22.0 °F 19.8 °F 73% 30.26 in 10.0 mi ESE 4.6 mph - N/A   Scattered Clouds